[[{"header":{"parameterUnit":"m.s-1","parameterCategory":1,"la1":30.2991,"la2":30.254,"lo1":-89.0895,"lo2":-89.0444,"dy":0.0017,"dx":0.0017,"nx":28,"ny":28,"refTime":"2024-08-01T03:00:00:Z","depth":0,"parameterNumber":2,"parameterNumberName":"U-component_of_WINDS"},"data":[0,0,0,0,0,0,0,0,0,0,0,0,0,0,0,0,0,0,0,0,0,0,0,0,0,0,0,0,0,0,0,0,0,0,0,0,0,0,0,0,0,0,0,0,0,0,0,0,0,0,0,0,0,0,0,0,0,0,1.3831,1.3832,0,1.3893,1.3893,1.3894,1.3918,1.3917,1.3917,1.3917,1.398,1.3982,1.3984,0,0,0,0,0,0,0,0,0,0,0,0,0,1.3734,1.3736,1.3831,1.3832,1.3832,1.3893,1.3893,1.3894,1.3918,1.3917,1.3917,1.3917,1.3979,1.3982,1.3984,0,0,0,0,0,0,0,0,0,0,0,0,0,1.3784,1.3736,1.3831,1.3851,1.3854,1.3892,1.3893,1.3894,1.3918,1.3917,1.3917,1.3917,1.3979,1.3981,1.3984,1.4006,0,0,1.3992,1.3994,0,0,0,0,0,0,0,0,1.3781,1.3787,1.3848,1.385,1.3853,1.3897,1.3882,1.3932,1.3918,1.3893,1.3917,1.3917,1.3953,1.3957,1.397,1.4009,1.4012,1.3993,1.3994,1.3996,1.3996,0,0,0,0,0,0,0,1.3777,1.3785,1.3855,1.3848,1.3852,1.3858,1.3865,1.3892,1.3924,1.3896,1.3897,1.3904,1.3954,1.3967,1.3971,1.4013,1.3993,1.3995,1.3997,1.3998,1.4076,1.4076,0,0,0,0,0,0,1.3771,1.3782,1.3853,1.3857,1.3816,1.386,1.3867,1.3883,1.3924,1.3929,1.3905,1.3905,1.3962,1.3968,1.3974,1.4003,1.3996,1.3998,1.4,1.4075,1.4076,1.4076,0,0,0,0,0,0,1.3768,1.3777,1.3851,1.382,1.383,1.3862,1.3879,1.3885,1.3898,1.393,1.3936,1.3912,1.3962,1.397,1.3998,1.4006,1.3999,1.4002,1.4075,1.4075,1.4076,1.4062,0,0,0,0,0,0,1.3765,1.3776,1.3784,1.382,1.3831,1.3874,1.388,1.3886,1.3902,1.3904,1.3939,1.3944,1.3963,1.3994,1.4001,1.4009,1.4004,1.4074,1.4075,1.4076,1.4062,1.4062,1.4062,0,0,0,0,0,1.3762,1.3778,1.3785,1.3793,1.3843,1.3875,1.3881,1.3902,1.3903,1.3912,1.3933,1.3943,1.4004,1.3997,1.4005,1.4014,1.4074,1.4075,1.4076,1.4062,1.4062,1.4062,0,0,0,0,0,0,1.3742,1.3783,1.3791,1.3819,1.3843,1.3879,1.3891,1.3902,1.3926,1.3927,1.3952,1.3959,1.3986,1.4003,1.3995,1.4039,1.404,1.4042,1.4026,1.4027,1.4027,1.4022,1.4006,0,0,0,0,0,1.374,1.3763,1.3797,1.3819,1.3831,1.3858,1.3873,1.3887,1.3914,1.3924,1.3947,1.3972,1.3997,1.4013,1.4038,1.4065,1.4073,1.4075,1.4075,1.4075,1.4077,1.4093,1.4095,1.4079,1.4079,1.4079,0,0,1.3738,1.3763,1.3776,1.3815,1.3836,1.3859,1.3867,1.389,1.3908,1.3927,1.3956,1.3974,1.4004,1.4032,1.4046,1.4047,1.4083,1.4076,1.4076,1.4078,1.4095,1.4096,1.4097,1.408,1.408,1.4079,0,0,1.3745,1.3766,1.3787,1.3808,1.3839,1.3858,1.3862,1.3897,1.391,1.3939,1.3955,1.3976,1.4018,1.4039,1.4055,1.4071,1.4082,1.4079,1.4079,1.4095,1.4096,1.4097,1.4104,1.4106,1.408,1.408,1.408,0,1.3738,1.3773,1.3796,1.3819,1.3836,1.3856,1.3877,1.3896,1.3933,1.3945,1.3946,1.4,1.4021,1.4055,1.4059,1.4072,1.4078,1.4075,1.4094,1.4096,1.4097,1.4103,1.4106,1.408,1.408,1.408,1.408,0,1.3763,1.3787,1.38,1.3837,1.3855,1.3877,1.3904,1.392,1.3933,1.3952,1.3982,1.4008,1.4039,1.4048,1.406,1.4084,1.4084,1.4089,1.4091,1.4098,1.4104,1.4107,1.4079,1.4079,1.4079,1.408,0,0,1.3759,1.3808,1.3812,1.383,1.3866,1.3886,1.3909,1.3939,1.3953,1.3979,1.3999,1.4035,1.404,1.4059,1.4074,1.4088,1.41,1.4092,1.4093,1.4092,1.4128,1.4124,1.4126,1.4107,1.4108,1.4108,1.4126,0,1.3771,1.3813,1.3835,1.3868,1.3891,1.3911,1.3931,1.3956,1.3974,1.3997,1.4017,1.4042,1.4047,1.4059,1.4073,1.4095,1.4107,1.4094,1.4127,1.4127,1.4118,1.4129,1.4125,1.414,1.4128,1.4129,1.4129,0,1.3791,1.3817,1.3852,1.3887,1.3898,1.3916,1.3946,1.3967,1.3996,1.4009,1.403,1.4045,1.407,1.407,1.4106,1.4097,1.4112,1.4125,1.4126,1.4129,1.4128,1.4133,1.4145,1.4147,1.4133,1.4133,1.4132,0,1.3784,1.3828,1.3856,1.387,1.3911,1.3923,1.3941,1.397,1.3987,1.4013,1.4025,1.4054,1.407,1.4092,1.4115,1.4113,1.4149,1.415,1.416,1.416,1.4167,1.4166,1.4181,1.4176,1.4176,1.4176,1.4176,0,1.3796,1.3817,1.3853,1.387,1.3895,1.392,1.3943,1.3962,1.3988,1.4009,1.4028,1.4047,1.4076,1.4099,1.4117,1.4145,1.4152,1.4163,1.4167,1.4161,1.416,1.4171,1.417,1.4176,1.4176,1.4176,1.4176,0,1.3792,1.3818,1.3849,1.3886,1.3896,1.3912,1.3944,1.3961,1.3981,1.4007,1.4015,1.4046,1.4074,1.4099,1.4137,1.4149,1.4177,1.4183,1.4167,1.417,1.4178,1.4177,1.4201,1.4205,1.4197,1.4197,1.4197,0,1.3798,1.3815,1.3854,1.387,1.3887,1.3912,1.393,1.3956,1.3974,1.4009,1.4022,1.4051,1.4077,1.4121,1.4147,1.4176,1.4182,1.4189,1.4187,1.418,1.4183,1.4181,1.4183,1.4188,1.4188,1.4188,1.4188,0,1.3805,1.3817,1.3843,1.3873,1.3894,1.3918,1.3944,1.3955,1.3986,1.4005,1.4035,1.4054,1.4093,1.4123,1.4155,1.4173,1.4186,1.4189,1.4193,1.4186,1.4177,1.4183,1.4167,1.4188,1.4188,1.4188,1.4188,1.4188,1.3807,1.3823,1.3854,1.3881,1.3903,1.3927,1.3945,1.3968,1.3993,1.4026,1.404,1.407,1.41,1.4144,1.4163,1.4187,1.4189,1.4194,1.4196,1.4197,1.4196,1.4173,1.4193,1.4193,1.4193,1.4193,1.4193,0,1.3816,1.3837,1.3862,1.3897,1.3919,1.393,1.3959,1.3976,1.4003,1.4029,1.4054,1.4088,1.4117,1.4146,1.4176,1.419,1.4197,1.4197,1.4197,1.4201,1.4192,1.4186,1.4192,1.4192,1.4192,1.4192,1.4192,1.4192,1.3823,1.3851,1.3867,1.3906,1.3927,1.3957,1.3973,1.3995,1.4016,1.4054,1.4078,1.4097,1.4124,1.4157,1.4184,1.4192,1.4202,1.4201,1.4211,1.4202,1.4201,1.4201,1.4195,1.4203,1.4203,1.4218,1.4218,1.4218]},{"header":{"parameterUnit":"m.s-1","parameterCategory":1,"la1":30.2991,"la2":30.254,"lo1":-89.0895,"lo2":-89.0444,"dy":0.0017,"dx":0.0017,"nx":28,"ny":28,"refTime":"2024-08-01T03:00:00:Z","depth":0,"parameterNumber":3,"parameterNumberName":"V-component_of_WINDS"},"data":[0,0,0,0,0,0,0,0,0,0,0,0,0,0,0,0,0,0,0,0,0,0,0,0,0,0,0,0,0,0,0,0,0,0,0,0,0,0,0,0,0,0,0,0,0,0,0,0,0,0,0,0,0,0,0,0,0,0,-1.3308,-1.3309,0,-1.3339,-1.3339,-1.334,-1.3328,-1.3328,-1.3327,-1.3326,-1.3357,-1.3358,-1.336,0,0,0,0,0,0,0,0,0,0,0,0,0,-1.3242,-1.3243,-1.3308,-1.3309,-1.3309,-1.3339,-1.3339,-1.334,-1.3328,-1.3328,-1.3327,-1.3326,-1.3356,-1.3358,-1.336,0,0,0,0,0,0,0,0,0,0,0,0,0,-1.3272,-1.3244,-1.3308,-1.3307,-1.3307,-1.3339,-1.3339,-1.334,-1.3329,-1.3328,-1.3326,-1.3326,-1.3356,-1.3358,-1.336,-1.3394,0,0,-1.3367,-1.3368,0,0,0,0,0,0,0,0,-1.327,-1.3274,-1.3307,-1.3307,-1.3308,-1.3329,-1.3327,-1.3358,-1.3329,-1.332,-1.3326,-1.3325,-1.3348,-1.3351,-1.3359,-1.3396,-1.3397,-1.3367,-1.3368,-1.3369,-1.337,0,0,0,0,0,0,0,-1.3268,-1.3273,-1.332,-1.3307,-1.3308,-1.3306,-1.3309,-1.3333,-1.334,-1.3321,-1.332,-1.3324,-1.3348,-1.3357,-1.336,-1.3397,-1.3367,-1.3369,-1.337,-1.3371,-1.3468,-1.3469,0,0,0,0,0,0,-1.3266,-1.3271,-1.3319,-1.3321,-1.3286,-1.3308,-1.3311,-1.3323,-1.3339,-1.3341,-1.3325,-1.3324,-1.3354,-1.3357,-1.3361,-1.3404,-1.3369,-1.3371,-1.3372,-1.3466,-1.3468,-1.3469,0,0,0,0,0,0,-1.3264,-1.327,-1.3318,-1.3296,-1.3302,-1.331,-1.3323,-1.3324,-1.3333,-1.3342,-1.3344,-1.3333,-1.3353,-1.3358,-1.3387,-1.3405,-1.3372,-1.3374,-1.3465,-1.3467,-1.3469,-1.3491,0,0,0,0,0,0,-1.3262,-1.327,-1.3282,-1.3296,-1.3303,-1.3344,-1.3324,-1.3325,-1.3337,-1.3335,-1.335,-1.3351,-1.3353,-1.3384,-1.3389,-1.3408,-1.3376,-1.3463,-1.3466,-1.3468,-1.3488,-1.3493,-1.3497,0,0,0,0,0,-1.326,-1.3286,-1.3283,-1.3289,-1.3319,-1.3345,-1.3348,-1.335,-1.3338,-1.3351,-1.3358,-1.3351,-1.3402,-1.3387,-1.3393,-1.3412,-1.3462,-1.3465,-1.3468,-1.3486,-1.3492,-1.3497,0,0,0,0,0,0,-1.3273,-1.3288,-1.3284,-1.3316,-1.3329,-1.3343,-1.3359,-1.3355,-1.3372,-1.3369,-1.337,-1.3373,-1.3404,-1.3411,-1.3393,-1.3448,-1.3431,-1.3435,-1.3443,-1.3448,-1.3453,-1.3451,-1.3378,0,0,0,0,0,-1.3279,-1.3299,-1.3311,-1.3337,-1.3344,-1.3351,-1.3362,-1.3362,-1.3376,-1.3381,-1.339,-1.3403,-1.3423,-1.3436,-1.3454,-1.3489,-1.3494,-1.3506,-1.351,-1.3514,-1.3518,-1.354,-1.3546,-1.3479,-1.3478,-1.3478,0,0,-1.3293,-1.3304,-1.3315,-1.334,-1.3351,-1.3372,-1.3355,-1.3377,-1.3394,-1.3384,-1.3413,-1.342,-1.3436,-1.3469,-1.3484,-1.3476,-1.3537,-1.3517,-1.352,-1.3522,-1.3543,-1.355,-1.3556,-1.348,-1.348,-1.348,0,0,-1.3329,-1.3338,-1.3362,-1.3374,-1.339,-1.3395,-1.3401,-1.3416,-1.3421,-1.345,-1.3444,-1.3464,-1.3496,-1.3509,-1.3519,-1.3563,-1.3558,-1.3569,-1.3592,-1.3614,-1.3619,-1.3624,-1.3643,-1.3649,-1.3573,-1.3573,-1.3573,0,-1.3343,-1.3374,-1.3375,-1.3399,-1.3412,-1.3405,-1.3431,-1.3442,-1.3464,-1.3473,-1.3463,-1.3506,-1.3516,-1.3554,-1.3565,-1.3573,-1.3581,-1.3568,-1.3619,-1.3623,-1.3628,-1.3645,-1.3652,-1.3574,-1.3574,-1.3574,-1.3574,0,-1.3393,-1.3415,-1.3433,-1.3456,-1.347,-1.3494,-1.35,-1.3515,-1.3514,-1.352,-1.3552,-1.3564,-1.3586,-1.3594,-1.3593,-1.3633,-1.3628,-1.3618,-1.3601,-1.3636,-1.3652,-1.3659,-1.3576,-1.3576,-1.3575,-1.3575,0,0,-1.3437,-1.3462,-1.3468,-1.348,-1.3499,-1.3516,-1.3542,-1.3564,-1.3578,-1.3593,-1.3616,-1.3645,-1.3638,-1.365,-1.365,-1.3669,-1.3707,-1.3658,-1.3658,-1.3669,-1.3755,-1.3763,-1.3771,-1.3704,-1.3705,-1.3706,-1.3755,0,-1.3476,-1.3521,-1.3524,-1.3565,-1.3587,-1.3583,-1.3605,-1.362,-1.3627,-1.3647,-1.3654,-1.3677,-1.3663,-1.3671,-1.369,-1.3699,-1.3725,-1.3695,-1.3726,-1.3727,-1.3724,-1.3779,-1.3787,-1.3832,-1.3761,-1.3762,-1.3762,0,-1.3527,-1.3546,-1.359,-1.3609,-1.3618,-1.3638,-1.3661,-1.368,-1.3697,-1.3701,-1.3716,-1.3715,-1.3743,-1.3724,-1.3764,-1.3743,-1.3756,-1.3763,-1.3765,-1.3769,-1.3748,-1.3787,-1.3847,-1.3854,-1.3772,-1.3771,-1.3771,0,-1.3558,-1.3594,-1.3626,-1.3635,-1.3657,-1.3672,-1.3682,-1.3699,-1.3713,-1.3733,-1.3743,-1.3765,-1.3778,-1.3796,-1.3802,-1.3787,-1.3842,-1.3823,-1.3848,-1.3848,-1.386,-1.3859,-1.3925,-1.3865,-1.3865,-1.3865,-1.3865,0,-1.3602,-1.3629,-1.364,-1.366,-1.3691,-1.3695,-1.3726,-1.3736,-1.3751,-1.3773,-1.377,-1.3792,-1.3797,-1.3819,-1.3824,-1.3857,-1.3862,-1.3868,-1.3869,-1.3869,-1.3869,-1.3878,-1.3876,-1.3867,-1.3867,-1.3866,-1.3866,0,-1.3641,-1.3649,-1.3684,-1.3703,-1.3709,-1.3732,-1.3749,-1.3768,-1.3776,-1.3804,-1.3811,-1.3823,-1.385,-1.3857,-1.3888,-1.3891,-1.3932,-1.3929,-1.3926,-1.3927,-1.3952,-1.395,-1.4027,-1.4039,-1.397,-1.3971,-1.3971,0,-1.367,-1.3691,-1.3714,-1.3729,-1.374,-1.3764,-1.378,-1.3785,-1.3801,-1.3825,-1.3842,-1.3869,-1.3891,-1.3934,-1.3945,-1.397,-1.3969,-1.3995,-1.3973,-1.3974,-1.3973,-1.3972,-1.3976,-1.3999,-1.4,-1.4001,-1.4001,0,-1.372,-1.3724,-1.3746,-1.3772,-1.3791,-1.381,-1.3829,-1.3841,-1.385,-1.3869,-1.3897,-1.3914,-1.3947,-1.3975,-1.4,-1.4011,-1.4009,-1.4008,-1.4015,-1.4017,-1.4015,-1.4019,-1.394,-1.4006,-1.4006,-1.4005,-1.4005,-1.4005,-1.3757,-1.3777,-1.3797,-1.3823,-1.3838,-1.3857,-1.3877,-1.3888,-1.3912,-1.394,-1.3942,-1.3973,-1.3993,-1.4027,-1.404,-1.4065,-1.4058,-1.4068,-1.4071,-1.4074,-1.4077,-1.401,-1.407,-1.4069,-1.4069,-1.4069,-1.4069,0,-1.3809,-1.3823,-1.3847,-1.3874,-1.3896,-1.3891,-1.3913,-1.3931,-1.3959,-1.3978,-1.4,-1.4034,-1.4061,-1.4076,-1.4103,-1.4121,-1.412,-1.4128,-1.4128,-1.4131,-1.4081,-1.4073,-1.4128,-1.4128,-1.4128,-1.4128,-1.4128,-1.4128,-1.3839,-1.3874,-1.3881,-1.3924,-1.3937,-1.3969,-1.3982,-1.4,-1.4015,-1.4053,-1.4076,-1.4086,-1.4104,-1.4134,-1.4159,-1.4163,-1.4174,-1.4183,-1.4186,-1.414,-1.4134,-1.4128,-1.4121,-1.4185,-1.4185,-1.4234,-1.4235,-1.4235]}]]